Regional Weather Roundup
Issued by NWS

Home | Current Version | Previous Version | Text Only | Print | Product List | Glossary On
Versions: 1 2 3 4 5 6 7 8 9 10 11 12 13 14 15 16 17 18 19 20 21 22 23 24 25 26 27 28 29 30 31 32 33 34 35 36 37 38 39 40 41 42 43 44 45 46 47 48 49 50
000
ASUS43 KDMX 011207
RWRIA

WEATHER ROUNDUP FOR IOWA
NATIONAL WEATHER SERVICE DES MOINES IA
600 AM CST SUN FEB 01 2015

NOTE: "FAIR" INDICATES FEW OR NO CLOUDS BELOW 12,000 FEET WITH NO
SIGNIFICANT WEATHER AND/OR OBSTRUCTIONS TO VISIBILITY.

* - THESE STATIONS ARE NOT NWS STATIONS...THUS NOT UNDER NWS
QUALITY CONTROL.  THEY ALSO DO NOT REPORT WEATHER SUCH
AS PRECIPITATION OR FOG.

IAZ001>003-012>014-020>022-031>034-043>046-011300-
   NORTHWEST IOWA

CITY           SKY/WX    TMP DP  RH WIND       PRES   REMARKS
CARROLL *      SNOW      27  25  93 NE25      29.84S VSB 1/2 WCI  11
CHEROKEE *     LGT SNOW  19  18  94 N17G28    29.96R WCI   4
DENISON *      MIX PCPN  25  23  93 N23G29    29.84R WCI  10
LE MARS *      LGT SNOW  19  18  93 NE24G33   30.00R WCI   2
ORANGE CITY *  LGT SNOW  19  16  86 NE17G28   29.99R WCI   4
SHELDON *      LGT SNOW  16  14  93 N25G36    30.00R WCI  -3
SIOUX CITY     LGT SNOW  22  18  85 N20G29    29.98R VSB 1   WCI   7
6HR MIN TEMP:  22; 6HR MAX TEMP:  30; 6HR PCP:  0.08;

SPENCER        LGT SNOW  18  14  84 NE30G38   29.99R FOG     WCI  -1
6HR MIN TEMP:  18; 6HR MAX TEMP:  25; 6HR PCP: TRACE;

STORM LAKE *   LGT SNOW  19  18  93 NE26G38   29.92R VSB 3/4 WCI   1
$$

IAZ055>058-069>071-079>083-090>094-011300-
   SOUTHWEST IOWA

CITY           SKY/WX    TMP DP  RH WIND       PRES   REMARKS
ATLANTIC *     LGT SNOW  32  32 100 N15       29.78S WCI  22
AUDUBON *      LGT SNOW  28  27  93 N13       29.81S WCI  18
CLARINDA *     LGT SNOW  32  32 100 CALM      29.77F
COUNCIL BLFS * HVY RAIN  28  28 100 N17G26    29.79R VSB 1   WCI  16
CRESTON *      LGT SNOW  32  32 100 NE9       29.75F WCI  24
HARLAN  *      HVY RAIN  27  27 100 N24       29.85R WCI  12
LAMONI         LGT SNOW  32  31  96 NE6       29.74F FOG     WCI  26
6HR MIN TEMP:  32; 6HR MAX TEMP:  32; 6HR PCP:  0.35;

RED OAK *      LGT SNOW  32  32 100 N9        29.78S WCI  24
SHENANDOAH *   LGT SNOW  32  32 100 N8        29.78R WCI  25
$$

IAZ047>049-059>061-072>074-084-011300-
   CENTRAL IOWA

CITY           SKY/WX    TMP DP  RH WIND       PRES   REMARKS
AMES           LGT SNOW  30  28  92 NE13G24   29.83S FOG     WCI  20
6HR MIN TEMP:  30; 6HR MAX TEMP:  32; 6HR PCP:  0.19;

ANKENY *       LGT SNOW  32  32 100 MISG      29.81S
CHARITON *     LGT SNOW  32  32 100 E6        29.77F WCI  26
DES MOINES     LGT SNOW  33  31  92 E8        29.79F FOG     WCI  26
6HR MIN TEMP:  33; 6HR MAX TEMP:  33; 6HR PCP:  0.20;

GRINNELL*      LGT SNOW  32  32 100 E12       29.81S WCI  23
KNOXVILLE *    LGT SNOW  32  32 100 NE8       29.77F WCI  25
MARSHALLTOWN   LGT SNOW  29  27  92 E22       29.83R FOG     WCI  15
6HR MIN TEMP:  29; 6HR MAX TEMP:  32; 6HR PCP:  0.12;

PELLA *        HVY RAIN  32  32 100 E3        29.81F
PERRY *        LGT SNOW  32  32 100 NE8       29.81S WCI  25
$$

IAZ004>006-015-016-023>025-035-036-011300-
   NORTH CENTRAL IOWA

CITY           SKY/WX    TMP DP  RH WIND       PRES   REMARKS
ALGONA *       LGT SNOW  19  18  93 NE28      29.96R VSB 1   WCI   1
CLARION *      LGT SNOW  25  25 100 NE26G33   29.90R VSB 3/4 WCI   9
FORT DODGE *   CLOUDY    25  21  86 CALM      29.90R
MASON CITY     LGT SNOW  20  17  88 NE24G35   29.97R FOG     WCI   3
6HR MIN TEMP:  20; 6HR MAX TEMP:  26; 6HR PCP:  0.06;

FOREST CITY *  LGT SNOW  21  18  86 NE17G29   29.96S WCI   7
IOWA FALLS *   LGT SNOW  27  25  93 NE15      29.88R WCI  15
$$

IAZ007>011-017>019-026>030-037>042-050>054-066-011300-
   NORTHEAST IOWA

CITY           SKY/WX    TMP DP  RH WIND       PRES   REMARKS
CEDAR RAPIDS   LGT SNOW  30  30 100 E18       29.84F VSB 3/4 WCI  18
6HR MIN TEMP:  30; 6HR MAX TEMP:  32; 6HR PCP:  0.20;

CHARLES CITY * LGT SNOW  23  23 100 NE21      29.94S WCI   8
CLINTON *      CLOUDY    30  28  93 E20       29.91F WCI  18
DECORAH *      LGT SNOW  18  14  86 E21G33    29.99R WCI   1
DUBUQUE        LGT SNOW  25  22  88 NE21      29.92F VSB 1   WCI  11
6HR MIN TEMP:  25; 6HR MAX TEMP:  29; 6HR PCP:  0.21;

MONTICELLO *   LGT SNOW  28  28 100 NE15G28   29.88F VSB 3/4 WCI  17
OELWEIN *      LGT SNOW  25  23  93 E24G33    29.90F WCI   9
WATERLOO       LGT SNOW  26  25  96 E24G36    29.89F FOG     WCI  11
6HR MIN TEMP:  26; 6HR MAX TEMP:  30; 6HR PCP:  0.15;

$$

IAZ064-065-067-068-078-011300-
   EAST CENTRAL IOWA

CITY           SKY/WX    TMP DP  RH WIND       PRES   REMARKS
DAVENPORT      LGT SNOW  32  30  92 E17       29.86F VSB 3/4 WCI  21
6HR MIN TEMP:  32; 6HR MAX TEMP:  32; 6HR PCP:  0.27;

IOWA CITY      LGT SNOW  33  32  96 E10       29.86F VSB 1   WCI  25
6HR MIN TEMP:  32; 6HR MAX TEMP:  33; 6HR PCP:  0.40;

MT. PLEASANT * LGT SNOW  32  32 100 SE6       29.81F WCI  26
MUSCATINE *    LGT SNOW  34  32  93 NE7       29.86S VSB 1   WCI  28
QUAD CITIES    LGT SNOW  32  31  96 E13       29.85F VSB 3/4 WCI  22
6HR MIN TEMP:  32; 6HR MAX TEMP:  33; 6HR PCP:  0.48;

$$

IAZ062-063-075>077-085>089-095>099-011300-
   SOUTHEAST IOWA

CITY           SKY/WX    TMP DP  RH WIND       PRES   REMARKS
BURLINGTON     LGT SNOW  32  32 100 SE8       29.81F FOG     WCI  25
6HR MIN TEMP:  32; 6HR MAX TEMP:  33; 6HR PCP:  0.28;

FAIRFIELD *    LGT SNOW  32  32 100 E8        29.81S WCI  25
FORT MADISON * LGT SNOW  32  32 100 SE5       29.81F WCI  27
KEOKUK *       LGT SNOW  34  32  93 SE7       29.79F WCI  28
OSKALOOSA *    LGT SNOW  32  31  98 E7        29.80F VSB 1   WCI  26
CENTERVILLE *  FLURRIES  32  32 100 E3        29.77F
OTTUMWA        LGT SNOW  32  32 100 E8        29.79F VSB 1   WCI  25
6HR MIN TEMP:  32; 6HR MAX TEMP:  33; 6HR PCP:  0.15;

WASHINGTON *   LGT SNOW  34  34 100 E7        29.83R VSB 1   WCI  28
$$

ABBREVIATIONS USED IN REMARKS
   TC - TEMPERATURES IN CELSIUS
  WCI - WIND CHILL INDEX
   HX - HEAT INDEX
  VSB - VISIBILITY
$$



USA.gov is the U.S. government's official web portal to all federal, state and local government web resources and services.